Showing default

GEESAT 2-07, 58911

Orbit data source: Space-Track

GEESAT 2-07, 58911 is a payload satellite owned by GeeSpace (CN) in LEO that was launched on Fri, 02 Feb 2024 UTC via a CHANG ZHENG 2C launch vehicle from the Xichang Space Center, China (XSC). Payload-class satellites include a variety of spacecraft equipped with specific instruments for various scientific and technological missions. These include communications satellites like Starlink; space stations such as the ISS; scientific satellites like the Hubble; Earth observation satellites from companies like Planet Labs, Umbra, and HawkEye 360; GPS; miniature CubeSats for education and research; and military/defense satellites.

Loading next visibility...
Identifier
58911, 2024-023G
Orbit
LEO
Country
Flag of CNCN / PRC
Related business
Manufacturer
Taizhou Xingkong
Mission
Operational Commercial Navigation
Bus & Motor
GEESAT1, Unknown motor
Mass
130 kg wet, 130 kg dry
Launch date (UTC)
2024-02-02 (2 years ago)
Launch vehicle
CHANG ZHENG 2C
Launch site
Xichang Space Center, China (XSC)
Object type
Payload
Rocket body
Debris
Shape & HBR
Box + 2 Pan, 1.0 m
Radar Cross Section
0.833 m², Medium (>0.1 m² and < 1m²)

Expand to show TLE details & history
Last TLE update: 20 hours ago

TLE from 20 hours ago
0 GEESAT 2-07
1 58911U 24023G   25249.27157446  .00004769  00000-0  52005-3 0  9994
2 58911  50.0030 232.2150 0009936  34.4516 325.7067 14.89447987 86734
Epoch: 2025-09-06T06:31Z
TLE epoch observation values (Epoch: 2025-09-06T06:31:04.033Z)
Latitude
-0.00003°
Longitude
148.84038°
Altitude
594.48 km
Speed
7.567 km/s
True Right ascension
15h 28m 51s
True Declination
0° 00' 00"
Sunlit
Object was in daylight at epoch
Visualization orbit readout
Latitude
Unknown
Longitude
Unknown
Altitude
Unknown
Speed
Unknown
Apparent Right ascension
Unknown
Apparent Declination
Unknown
Sunlit
N/A
Visualization observer readout
Local Sidereal Time
18:07:17
Azimuth
Unknown
Elevation
Unknown
Doppler factor
Unknown
Orbital elements
Apogee altitude
607.353 km
Perigee altitude
593.485 km
Semi-major axis
6,978.556 km
Eccentricity
0.00099
Inclination
50.003°
RAAN
232.215°
Arg. of periapsis
34.4516°
True anomaly
325.64248°
Mean anomaly
325.7067°
Eccentric anomaly
325.6746°
Mean motion
3.72302 °/min
Orbital period
96.7 mins
BSTAR
0.00052005
Loading maneuver chart data...
Computing Atmospheric mass density...
Loading historical data...
Loading historical data...
Loading historical data...
Loading historical data...
Loading historical data...
Loading historical data...
Loading historical data...

Documentation

Showing up to 5 results
|